CAPE
1123 1086 1019 884 842 890 823 646 487 516 565 0 0 0 0 0 155 496 588 521 500 485 462 410 323 60 59 46 8 10 15 14 0 0 0 0 0 0 1 1 0 0 2 4 0 0 5 8 6 3 5 7 7 8 2 4 7 1 0 2 2 3 6 6 6 7 5 5 5 7 7 6 6 4 5 4 6 5 6 7 5 6 6 4 4
1104 990 858 764 679 678 586 547 54 376 526 0 0 0 0 0 0 145 462 505 421 389 393 367 321 235 59 7 0 6 0 0 0 0 0 0 0 1 0 0 0 2 3 2 2 0 2 6 4 2 3 1 3 11 8 4 8 2 0 0 2 4 3 1 3 4 8 6 6 4 6 4 1 2 1 4 3 4 4 4 5 6 4 3 5
1003 940 699 568 523 543 492 357 0 0 175 0 0 0 0 0 0 0 0 428 413 444 361 367 349 326 204 5 0 8 0 0 0 0 0 0 0 0 0 0 0 0 1 2 2 0 0 4 6 1 0 0 1 6 6 8 8 3 0 0 0 1 2 2 4 4 4 5 5 4 4 1 1 1 2 3 1 3 2 4 4 4 3 3 6
866 933 756 564 397 199 399 1 1 0 0 0 0 0 0 0 0 0 0 12 348 435 315 328 391 338 279 85 1 0 0 0 0 0 0 0 0 0 0 0 0 0 0 2 2 2 0 1 4 6 6 8 6 3 2 6 8 7 2 0 0 0 1 1 3 5 3 1 2 2 2 1 1 1 1 0 1 1 2 2 2 2 3 3 2
715 879 890 624 477 402 195 28 1 0 0 0 0 0 0 0 0 0 0 11 217 295 265 251 319 342 278 0 0 0 0 0 0 0 0 0 0 0 0 0 0 0 0 0 0 2 1 0 1 6 4 3 4 3 1 2 3 6 9 2 0 0 1 2 4 4 3 2 0 1 1 1 2 5 2 0 1 1 1 1 2 2 2 3 2
602 845 905 698 524 438 365 158 13 0 0 0 0 0 0 0 0 0 0 10 66 128 172 109 40 288 293 38 0 0 0 0 0 0 0 0 0 0 0 0 0 0 0 0 0 0 0 0 0 0 4 5 6 6 2 3 2 2 3 5 3 0 0 0 2 2 0 1 0 1 0 0 2 3 6 5 0 0 0 1 2 3 4 3 2
585 718 875 724 550 552 486 252 72 1 0 0 0 0 0 0 0 0 0 0 23 87 142 102 42 194 290 93 0 0 0 0 0 0 0 0 0 0 0 0 0 0 0 0 0 0 0 0 0 0 0 6 7 4 1 2 2 2 1 0 3 2 0 0 1 1 0 1 0 1 1 1 2 3 4 3 2 0 2 2 1 1 2 1 2
716 618 707 678 562 513 630 534 263 448 384 0 0 0 0 0 0 0 0 0 7 51 107 98 53 78 247 146 0 0 0 0 0 0 0 0 0 0 0 0 0 0 0 0 0 0 0 0 0 0 0 0 3 5 3 2 2 3 1 0 0 1 0 0 0 0 0 0 0 1 2 1 1 2 3 2 2 0 2 2 2 1 1 2 3
690 674 543 569 532 452 431 570 544 493 459 311 0 0 0 0 0 0 0 0 2 29 62 86 50 26 216 212 0 0 0 0 0 0 0 0 0 0 0 0 0 0 0 0 0 0 0 0 0 0 0 0 0 4 6 2 2 4 3 3 1 0 0 0 0 0 0 0 0 0 0 1 1 2 3 3 2 2 1 1 0 1 1 1 2
736 660 642 538 509 464 460 576 634 566 520 391 0 0 0 0 0 0 0 0 0 14 36 52 37 15 86 105 140 0 0 0 0 0 0 0 0 0 0 0 0 0 0 0 0 0 0 0 0 0 0 0 0 0 2 3 2 0 0 0 1 1 0 0 0 0 0 0 0 0 0 0 1 2 2 5 3 2 0 0 0 0 1 1 2
707 691 633 586 600 607 582 668 715 650 533 429 245 0 0 0 0 0 0 0 0 4 15 26 25 7 1 236 2 0 0 0 0 0 0 0 0 0 0 0 0 0 0 0 0 0 0 0 0 0 0 0 0 0 0 0 0 0 0 0 0 1 0 0 0 0 0 0 0 0 0 0 0 1 0 1 4 4 0 0 0 0 0 1 1
618 629 580 533 562 570 523 596 622 606 499 393 317 0 0 0 0 0 0 0 0 0 1 3 6 0 0 0 5 0 0 0 0 0 0 0 0 0 0 0 0 0 0 0 0 0 0 0 0 0 0 0 0 0 0 0 0 0 0 0 0 0 1 0 0 0 0 0 0 0 0 0 0 0 0 1 2 3 1 0 0 0 0 0 0
523 600 631 599 636 656 550 447 464 449 385 356 367 0 0 0 0 0 0 0 0 0 0 0 3 0 24 29 26 0 0 0 43 24 0 10 0 0 0 0 0 0 0 0 0 0 0 0 0 0 0 0 0 1 0 0 0 0 0 0 0 0 0 0 0 0 0 0 0 0 0 0 0 0 0 0 1 1 0 0 0 0 0 0 0
536 547 636 695 707 721 666 558 374 324 302 309 307 0 0 0 0 0 0 0 0 0 0 0 13 0 8 0 83 102 92 134 37 0 0 0 0 0 0 0 0 0 0 0 0 0 0 0 0 0 0 0 0 0 0 0 0 0 0 0 0 0 0 0 0 0 0 0 0 0 0 0 0 0 0 0 0 0 0 0 0 0 0 0 0
488 404 431 498 560 598 598 609 522 290 230 88 0 0 0 0 0 0 0 0 0 0 0 0 0 0 0 0 65 142 94 23 0 0 0 0 0 0 0 0 0 0 0 0 0 0 0 0 0 0 0 0 0 0 0 0 0 0 0 0 0 0 0 0 0 0 0 0 0 0 0 0 0 0 0 0 0 0 0 0 0 0 0 0 0
636 598 368 334 377 442 491 521 516 311 294 316 283 0 0 0 0 0 0 0 0 2 1 0 0 0 0 0 0 0 0 0 0 0 0 0 0 0 0 0 0 0 0 0 0 0 0 0 0 0 0 0 0 0 0 0 0 0 0 0 0 0 0 0 0 0 0 0 0 0 0 0 0 0 0 0 0 0 0 0 0 0 0 0 0
840 816 669 539 519 532 540 526 520 367 331 344 361 364 6 0 0 0 0 0 0 0 1 0 0 0 0 0 0 0 0 0 0 0 0 0 0 0 0 0 0 0 0 0 0 0 0 0 0 0 0 0 0 0 0 0 0 0 0 0 0 0 0 0 0 0 0 0 0 0 0 0 0 0 0 0 0 0 0 0 0 0 0 0 0
1067 1063 1005 912 854 817 706 582 582 368 386 377 393 395 404 18 0 0 0 0 0 0 0 0 0 0 0 0 0 0 0 0 0 0 0 0 0 0 0 0 0 0 0 0 0 0 0 0 0 0 0 0 0 0 0 0 0 0 0 0 0 0 0 0 0 0 0 0 0 0 0 0 0 0 0 0 0 0 0 0 0 0 0 0 0
1181 1246 1260 1192 1186 1210 960 561 576 376 316 461 418 395 395 199 0 0 0 0 0 0 0 0 0 0 0 0 0 0 0 0 0 0 0 34 0 0 55 0 0 0 0 0 0 0 0 0 0 0 0 0 0 0 0 0 0 0 0 0 0 0 0 0 0 0 0 0 0 0 0 0 0 0 0 0 0 0 0 0 0 0 0 0 0
1406 1405 1425 1519 1413 1426 1385 824 518 487 447 431 480 398 384 88 0 0 0 0 0 0 0 0 0 0 0 0 0 0 0 0 0 0 0 139 344 268 198 0 0 0 0 0 0 0 0 0 0 0 0 0 0 0 0 0 0 0 0 0 0 0 0 0 0 0 0 0 0 0 0 0 0 0 0 0 0 0 0 0 0 0 0 0 0
1736 1780 1826 1836 1766 1614 1488 1202 748 696 589 569 508 362 404 277 77 0 0 0 0 0 0 0 0 0 0 0 0 0 0 0 87 204 222 297 319 280 186 0 0 0 0 0 0 0 0 0 0 0 0 0 0 0 0 0 0 0 0 0 0 0 0 0 0 0 0 0 0 0 0 0 0 0 0 0 0 0 0 0 0 0 0 0 0
1757 1738 1774 1927 1988 1822 1588 1315 1115 967 772 696 588 448 410 397 354 336 322 295 84 89 0 0 0 0 0 0 0 0 0 0 0 0 222 248 206 304 132 0 0 0 0 0 0 0 0 0 0 0 0 0 0 0 0 0 0 0 0 0 0 0 0 0 0 0 0 0 0 0 0 0 0 1 0 0 0 0 0 0 0 0 0 0 0
1686 1751 1816 1937 2058 1971 1709 1593 1465 1267 1025 847 632 520 392 412 424 405 404 392 397 390 379 284 0 0 0 0 0 0 0 0 0 0 38 264 305 294 40 0 0 0 0 0 0 0 0 0 0 0 0 0 0 0 0 0 0 0 0 0 0 0 0 0 0 0 0 0 0 0 0 0 0 0 0 0 0 0 0 0 0 0 0 0 0
1709 1819 1848 1976 2090 2018 1810 1708 1681 1550 1269 968 734 524 414 434 451 448 439 435 416 408 380 352 342 397 170 0 162 0 133 62 0 0 120 353 315 316 197 0 0 0 0 0 0 0 0 0 0 0 0 0 0 0 0 0 0 0 0 0 0 0 0 0 0 0 0 0 0 0 0 0 0 0 0 0 0 0 0 0 0 0 0 0 0
1698 1744 1913 2057 2087 1996 1866 1842 1794 1689 1462 1148 841 547 488 392 423 433 425 413 383 356 326 319 354 447 508 396 0 411 410 400 154 196 328 378 387 364 244 0 21 0 0 0 0 0 0 0 0 0 0 0 0 0 0 0 0 0 0 0 0 0 0 0 0 0 0 0 0 0 0 0 0 0 0 0 0 0 0 0 0 0 0 0 0
1736 1833 2029 2127 2116 2006 1945 1925 1863 1774 1623 1324 912 539 522 429 414 411 309 0 117 148 272 278 328 452 555 550 506 519 542 498 324 0 410 483 478 448 370 121 17 47 0 0 0 0 0 0 0 0 0 0 0 0 0 0 0 0 0 0 0 0 0 0 0 0 0 0 0 0 0 0 0 0 0 0 0 0 0 0 0 0 0 0 0
1831 1944 2031 2109 2092 2030 2011 1982 1937 1835 1679 1362 911 554 497 452 418 423 370 0 0 0 260 279 368 468 584 585 552 587 609 616 558 518 538 567 544 512 420 279 227 43 49 4 0 0 6 0 0 0 0 0 0 0 0 0 0 0 0 0 0 0 0 0 0 0 0 0 0 0 0 0 0 0 0 0 0 0 0 0 0 0 0 0 0
1876 1944 2044 2059 2053 2014 2014 2012 1937 1862 1683 1285 883 586 528 512 442 411 398 15 0 216 308 327 402 484 589 590 594 647 659 674 660 638 648 668 614 568 427 305 39 93 0 0 0 146 0 0 0 0 0 0 0 0 0 0 0 0 0 0 0 0 0 0 0 0 0 0 0 0 0 0 0 0 0 0 0 0 0 0 0 0 0 0 0
1926 1974 2021 2034 2012 2000 2037 2013 1970 1882 1660 1235 811 556 560 585 584 504 415 398 388 390 392 406 434 490 529 579 617 674 703 713 753 745 712 693 649 588 465 318 18 0 182 27 8 2 214 178 0 0 0 0 0 0 0 0 0 0 0 0 0 0 0 0 0 0 0 0 0 0 0 0 0 0 0 0 0 0 0 0 0 0 0 0 0
1994 2012 1993 1986 1988 1980 2030 2005 1935 1829 1684 1463 1134 598 565 613 676 739 667 478 455 431 426 463 478 485 547 587 666 742 746 767 857 853 814 768 714 660 564 343 0 0 77 265 258 0 254 280 197 0 0 0 0 0 0 0 0 0 0 0 0 0 0 0 0 0 0 0 0 0 0 0 0 0 0 0 0 0 0 0 0 0 0 0 0
1982 2029 2031 1971 1925 1947 1963 1943 1839 1783 1696 1590 1325 788 528 584 654 792 900 782 576 558 597 562 554 560 609 675 726 747 726 828 892 856 819 801 766 712 574 430 309 75 0 35 306 245 38 256 292 66 0 0 0 0 0 0 0 0 0 0 0 0 0 0 0 0 0 0 0 0 0 0 0 0 0 0 0 0 0 0 0 0 0 0 0
1959 1992 1999 1981 1933 1898 1860 1804 1754 1714 1694 1619 1404 955 534 556 623 758 948 952 748 685 732 666 664 696 723 747 738 833 938 952 922 870 831 812 787 750 641 574 514 393 112 260 332 356 316 415 518 531 415 289 42 0 0 0 0 0 0 0 0 0 0 0 0 0 0 0 0 0 0 0 0 0 0 0 0 0 0 0 0 0 0 0 0
1893 1915 1946 1963 1938 1863 1776 1680 1622 1627 1596 1587 1427 1092 668 605 672 765 911 1000 929 900 904 845 744 760 834 885 925 978 1042 998 934 870 833 833 825 807 746 694 629 537 450 411 374 398 464 528 596 630 533 409 375 291 149 60 0 0 0 0 0 0 0 0 0 0 0 0 0 0 0 0 0 0 0 0 0 0 0 0 0 0 0 0 0
1859 1866 1870 1884 1887 1830 1739 1647 1545 1512 1516 1498 1435 1169 988 659 686 751 886 1016 1104 1111 1059 1010 996 944 925 962 1024 1098 1059 991 935 873 846 868 863 839 800 762 698 677 618 484 407 451 546 569 612 626 575 506 367 291 304 164 14 0 0 0 0 0 0 0 0 0 0 0 0 0 0 0 0 0 0 0 0 0 0 0 0 0 0 0 0
1821 1813 1816 1818 1824 1774 1710 1616 1531 1448 1425 1433 1421 1269 1143 1004 747 763 848 947 1043 1071 1025 1012 1127 1226 1180 1125 1190 1191 1075 1000 941 925 905 901 899 857 830 844 858 812 814 667 587 620 641 646 621 617 533 479 455 384 278 90 0 0 0 0 0 0 0 0 0 0 0 0 0 0 0 0 0 0 0 0 0 0 0 0 0 0 0 0 0
1845 1835 1790 1759 1748 1722 1702 1649 1550 1485 1426 1411 1396 1321 1225 1112 983 775 809 894 943 965 972 1024 1208 1368 1314 1265 1292 1222 1111 1022 1014 1044 1000 952 920 891 868 891 903 901 874 846 772 695 716 695 692 624 527 492 483 344 201 22 0 0 0 0 0 0 0 0 0 0 0 0 0 0 0 0 0 0 0 0 0 0 0 0 0 0 0 0 0
1916 1891 1813 1739 1693 1662 1656 1614 1563 1527 1488 1430 1371 1323 1263 1145 1059 900 797 799 837 901 981 1130 1296 1328 1321 1340 1322 1196 1096 1058 1097 1113 1075 1023 972 929 922 941 952 941 934 900 860 797 770 729 710 631 554 538 507 316 182 0 0 0 0 0 0 0 0 0 0 0 0 0 0 0 0 0 0 0 0 0 0 0 0 0 0 0 0 0 0
2001 1922 1872 1785 1713 1672 1617 1566 1531 1522 1488 1424 1372 1337 1279 1179 1106 1028 903 872 859 916 1061 1200 1276 1300 1361 1405 1350 1220 1105 1115 1138 1132 1104 1067 1031 996 990 1017 1029 1033 990 899 808 793 758 752 678 628 574 559 429 262 162 0 0 0 0 0 0 0 0 0 0 0 0 0 0 0 0 0 0 0 0 0 0 0 0 0 0 0 0 0 0
1969 1901 1824 1751 1717 1673 1635 1535 1521 1514 1485 1429 1384 1353 1297 1214 1145 1087 1093 1103 1110 1134 1182 1238 1319 1386 1444 1471 1416 1314 1245 1189 1148 1141 1132 1100 1053 1055 1066 1096 1093 1071 994 870 805 786 764 718 650 595 593 540 318 222 108 0 0 0 0 0 0 0 0 0 0 0 0 0 0 0 0 0 0 0 0 0 0 0 0 0 0 0 0 0 0
1822 1778 1734 1701 1680 1616 1575 1530 1486 1483 1481 1450 1411 1381 1327 1242 1186 1160 1175 1158 1177 1218 1256 1319 1391 1436 1460 1479 1470 1408 1358 1257 1178 1182 1175 1154 1095 1077 1107 1108 1094 1059 962 869 829 789 715 624 601 618 577 470 277 186 160 0 0 0 0 0 0 0 0 0 0 0 0 0 0 0 0 0 0 0 0 0 0 0 0 0 0 0 0 0 0
1814 1730 1736 1696 1661 1576 1500 1476 1458 1436 1458 1472 1439 1397 1344 1306 1288 1259 1229 1215 1200 1226 1283 1367 1451 1486 1490 1505 1500 1470 1398 1303 1232 1231 1256 1203 1120 1075 1066 1065 1078 1038 928 859 813 718 622 565 592 551 491 379 255 197 180 0 0 0 0 0 0 0 0 0 0 0 0 0 0 0 0 0 0 0 0 0 0 0 0 0 0 0 0 0 0
1771 1757 1787 1803 1691 1576 1504 1463 1431 1403 1414 1420 1398 1366 1337 1354 1360 1344 1313 1290 1270 1276 1318 1381 1458 1484 1533 1528 1501 1474 1401 1337 1303 1307 1344 1296 1182 1105 1068 1068 1084 993 878 818 701 590 524 502 493 452 406 344 284 245 213 181 0 0 0 0 0 0 0 0 0 0 0 0 0 0 0 0 0 0 0 0 0 0 0 0 0 0 0 0 0
1570 1233 1162 1220 1633 1632 1460 1228 1356 1375 1399 1378 1383 1337 1348 1387 1391 1388 1387 1386 1366 1380 1411 1441 1440 1440 1472 1500 1483 1472 1434 1397 1373 1370 1379 1338 1222 1168 1140 1156 1155 969 674 624 505 455 428 377 327 282 122 279 255 226 207 0 0 0 0 0 0 0 0 0 0 0 0 0 0 0 0 0 0 0 0 0 0 0 0 0 0 0 0 0 0
1345 1031 970 960 1223 1310 1373 1356 1274 1381 1352 1417 1413 1415 1422 1403 1416 1434 1434 1434 1440 1447 1465 1467 1478 1477 1486 1468 1450 1441 1455 1442 1421 1403 1393 1360 1260 1204 1193 1204 1168 938 665 528 100 148 0 0 0 0 0 7 108 0 0 0 0 0 0 0 0 0 0 0 0 0 0 0 0 0 0 0 0 0 0 0 0 0 0 0 0 0 0 0 0
1294 942 706 844 1099 1222 1404 1434 1388 1439 1410 1451 1335 1450 1481 1472 1421 1423 1434 1426 1431 1455 1465 1490 1501 1500 1511 1516 1493 1478 1481 1490 1416 1380 1392 1363 1264 1212 1219 1197 1094 819 689 549 398 0 0 0 0 0 0 0 0 0 0 0 0 0 0 0 0 0 0 0 0 0 0 0 0 0 0 0 0 0 0 0 0 0 0 0 0 0 0 0 0
1157 1167 1157 1133 1175 1265 1269 1199 1249 1444 1341 1225 1376 1406 1382 1554 1522 1380 1436 1441 1453 1468 1495 1530 1528 1542 1559 1549 1537 1529 1542 1510 1438 1398 1404 1361 1256 1224 1223 1153 1005 843 716 569 401 0 0 0 0 0 0 0 0 0 0 0 0 0 0 0 0 0 0 0 0 0 0 0 0 0 0 0 0 0 0 0 0 0 0 0 0 0 0 0 0
1171 1070 1047 1050 1100 1153 1126 1118 1276 1411 1495 1399 1449 1352 1304 1314 1322 1495 1527 1557 1555 1554 1594 1640 1645 1669 1661 1673 1717 1777 1814 1824 1709 1433 1400 1346 1280 1238 1231 1128 994 852 734 598 473 251 0 0 0 0 0 0 0 0 0 0 0 0 0 0 0 0 0 0 0 0 0 0 0 0 0 0 0 0 0 0 0 0 0 0 0 0 0 0 0
1272 1222 1147 1024 1024 1127 1225 1316 1226 1202 1452 1604 1524 1450 1498 1587 1672 1622 1510 1610 1654 1686 1729 1735 1718 1683 1659 1708 1745 1852 1926 1944 1862 1602 1445 1414 1312 1252 1230 1113 1014 835 699 589 501 25 0 0 0 0 0 0 0 0 0 0 0 0 0 0 0 0 0 0 0 0 0 0 0 0 0 0 0 0 0 0 0 0 0 0 0 0 0 0 0
1490 1534 1438 1277 1173 1111 1113 1169 1170 1170 1191 1413 1552 1390 1284 1450 1636 1661 1670 1653 1749 1790 1839 1796 1749 1697 1668 1713 1775 1903 1952 1934 1852 1658 1554 1518 1371 1235 1173 1089 966 790 672 585 467 0 0 0 0 0 0 0 0 0 0 0 0 0 0 0 0 0 0 0 0 0 0 0 0 0 0 0 0 0 0 0 0 0 0 0 0 0 0 0 0
1398 1428 1274 1091 992 971 1035 1150 1166 1075 1093 1302 1395 1314 1496 1596 1692 1817 1682 1736 1761 1897 1871 1863 1806 1760 1736 1758 1827 1882 1899 1866 1784 1671 1615 1579 1464 1260 1121 1003 870 726 625 541 425 0 0 0 0 0 0 0 0 0 0 0 0 0 0 0 0 0 0 0 0 0 0 0 0 0 0 0 0 0 0 0 0 0 0 0 0 0 0 0 0
997 874 819 767 794 892 974 969 932 898 990 1156 1170 1260 1600 1748 1620 1691 1605 1530 1819 1898 1891 1871 1815 1765 1782 1797 1864 1887 1837 1776 1733 1721 1704 1647 1550 1319 1064 914 800 695 603 488 378 0 0 0 0 0 0 0 0 0 0 0 0 0 0 0 0 0 0 0 0 0 0 0 0 0 0 0 0 0 0 0 0 0 0 0 0 0 0 0 0
Wind_Speed
6 6 6 7 7 7 6 5 4 3 2 nan nan nan nan nan 9 10 13 15 16 15 15 15 15 nan nan nan nan nan nan nan nan nan nan nan nan nan nan nan nan nan nan nan nan nan nan nan nan nan nan nan nan nan nan nan nan nan nan nan nan nan nan nan nan nan nan nan nan nan nan nan nan nan nan nan nan nan nan nan nan nan nan nan nan
6 6 5 7 7 7 6 6 nan 4 3 nan nan nan nan nan nan 10 12 15 16 16 15 15 15 15 nan nan nan nan nan nan nan nan nan nan nan nan nan nan nan nan nan nan nan nan nan nan nan nan nan nan nan nan nan nan nan nan nan nan nan nan nan nan nan nan nan nan nan nan nan nan nan nan nan nan nan nan nan nan nan nan nan nan nan
8 7 6 6 7 7 7 6 nan nan 4 nan nan nan nan nan nan nan nan 13 15 15 15 15 14 14 15 nan nan nan nan nan nan nan nan nan nan nan nan nan nan nan nan nan nan nan nan nan nan nan nan nan nan nan nan nan nan nan nan nan nan nan nan nan nan nan nan nan nan nan nan nan nan nan nan nan nan nan nan nan nan nan nan nan nan
10 9 7 6 7 6 6 nan nan nan nan nan nan nan nan nan nan nan nan nan 14 15 15 15 14 14 15 nan nan nan nan nan nan nan nan nan nan nan nan nan nan nan nan nan nan nan nan nan nan nan nan nan nan nan nan nan nan nan nan nan nan nan nan nan nan nan nan nan nan nan nan nan nan nan nan nan nan nan nan nan nan nan nan nan nan
10 11 8 6 6 7 6 nan nan nan nan nan nan nan nan nan nan nan nan nan 15 15 15 15 15 14 15 nan nan nan nan nan nan nan nan nan nan nan nan nan nan nan nan nan nan nan nan nan nan nan nan nan nan nan nan nan nan nan nan nan nan nan nan nan nan nan nan nan nan nan nan nan nan nan nan nan nan nan nan nan nan nan nan nan nan
10 11 9 7 6 6 7 7 nan nan nan nan nan nan nan nan nan nan nan nan nan 16 16 16 nan 14 14 nan nan nan nan nan nan nan nan nan nan nan nan nan nan nan nan nan nan nan nan nan nan nan nan nan nan nan nan nan nan nan nan nan nan nan nan nan nan nan nan nan nan nan nan nan nan nan nan nan nan nan nan nan nan nan nan nan nan
10 10 9 7 6 7 7 7 nan nan nan nan nan nan nan nan nan nan nan nan nan nan 16 17 nan 16 16 nan nan nan nan nan nan nan nan nan nan nan nan nan nan nan nan nan nan nan nan nan nan nan nan nan nan nan nan nan nan nan nan nan nan nan nan nan nan nan nan nan nan nan nan nan nan nan nan nan nan nan nan nan nan nan nan nan nan
11 9 9 8 7 7 6 6 8 7 7 nan nan nan nan nan nan nan nan nan nan nan 15 nan nan nan 16 15 nan nan nan nan nan nan nan nan nan nan nan nan nan nan nan nan nan nan nan nan nan nan nan nan nan nan nan nan nan nan nan nan nan nan nan nan nan nan nan nan nan nan nan nan nan nan nan nan nan nan nan nan nan nan nan nan nan
11 9 9 9 9 8 6 6 6 7 7 7 nan nan nan nan nan nan nan nan nan nan nan nan nan nan 16 16 nan nan nan nan nan nan nan nan nan nan nan nan nan nan nan nan nan nan nan nan nan nan nan nan nan nan nan nan nan nan nan nan nan nan nan nan nan nan nan nan nan nan nan nan nan nan nan nan nan nan nan nan nan nan nan nan nan
12 10 9 9 10 10 8 6 6 6 6 7 nan nan nan nan nan nan nan nan nan nan nan nan nan nan nan 17 16 nan nan nan nan nan nan nan nan nan nan nan nan nan nan nan nan nan nan nan nan nan nan nan nan nan nan nan nan nan nan nan nan nan nan nan nan nan nan nan nan nan nan nan nan nan nan nan nan nan nan nan nan nan nan nan nan
14 11 10 10 11 11 10 7 5 6 6 7 8 nan nan nan nan nan nan nan nan nan nan nan nan nan nan 16 nan nan nan nan nan nan nan nan nan nan nan nan nan nan nan nan nan nan nan nan nan nan nan nan nan nan nan nan nan nan nan nan nan nan nan nan nan nan nan nan nan nan nan nan nan nan nan nan nan nan nan nan nan nan nan nan nan
15 13 11 11 11 11 10 8 5 5 6 7 8 nan nan nan nan nan nan nan nan nan nan nan nan nan nan nan nan nan nan nan nan nan nan nan nan nan nan nan nan nan nan nan nan nan nan nan nan nan nan nan nan nan nan nan nan nan nan nan nan nan nan nan nan nan nan nan nan nan nan nan nan nan nan nan nan nan nan nan nan nan nan nan nan
16 15 12 12 11 11 11 8 5 5 5 6 9 nan nan nan nan nan nan nan nan nan nan nan nan nan nan nan nan nan nan nan nan nan nan nan nan nan nan nan nan nan nan nan nan nan nan nan nan nan nan nan nan nan nan nan nan nan nan nan nan nan nan nan nan nan nan nan nan nan nan nan nan nan nan nan nan nan nan nan nan nan nan nan nan
17 16 13 12 12 12 11 8 6 5 5 6 9 nan nan nan nan nan nan nan nan nan nan nan nan nan nan nan nan 14 nan 17 nan nan nan nan nan nan nan nan nan nan nan nan nan nan nan nan nan nan nan nan nan nan nan nan nan nan nan nan nan nan nan nan nan nan nan nan nan nan nan nan nan nan nan nan nan nan nan nan nan nan nan nan nan
18 17 14 12 12 12 11 10 8 7 5 nan nan nan nan nan nan nan nan nan nan nan nan nan nan nan nan nan nan 14 nan nan nan nan nan nan nan nan nan nan nan nan nan nan nan nan nan nan nan nan nan nan nan nan nan nan nan nan nan nan nan nan nan nan nan nan nan nan nan nan nan nan nan nan nan nan nan nan nan nan nan nan nan nan nan
18 17 15 14 13 12 13 12 10 9 7 6 9 nan nan nan nan nan nan nan nan nan nan nan nan nan nan nan nan nan nan nan nan nan nan nan nan nan nan nan nan nan nan nan nan nan nan nan nan nan nan nan nan nan nan nan nan nan nan nan nan nan nan nan nan nan nan nan nan nan nan nan nan nan nan nan nan nan nan nan nan nan nan nan nan
18 17 16 15 15 14 13 12 11 11 8 6 8 11 nan nan nan nan nan nan nan nan nan nan nan nan nan nan nan nan nan nan nan nan nan nan nan nan nan nan nan nan nan nan nan nan nan nan nan nan nan nan nan nan nan nan nan nan nan nan nan nan nan nan nan nan nan nan nan nan nan nan nan nan nan nan nan nan nan nan nan nan nan nan nan
17 16 15 16 17 15 12 12 12 12 8 5 7 11 12 nan nan nan nan nan nan nan nan nan nan nan nan nan nan nan nan nan nan nan nan nan nan nan nan nan nan nan nan nan nan nan nan nan nan nan nan nan nan nan nan nan nan nan nan nan nan nan nan nan nan nan nan nan nan nan nan nan nan nan nan nan nan nan nan nan nan nan nan nan nan
16 15 15 15 17 16 13 12 12 12 8 6 7 10 11 12 nan nan nan nan nan nan nan nan nan nan nan nan nan nan nan nan nan nan nan nan nan nan nan nan nan nan nan nan nan nan nan nan nan nan nan nan nan nan nan nan nan nan nan nan nan nan nan nan nan nan nan nan nan nan nan nan nan nan nan nan nan nan nan nan nan nan nan nan nan
17 15 14 15 17 16 15 14 13 13 9 5 7 8 10 nan nan nan nan nan nan nan nan nan nan nan nan nan nan nan nan nan nan nan nan 15 10 12 13 nan nan nan nan nan nan nan nan nan nan nan nan nan nan nan nan nan nan nan nan nan nan nan nan nan nan nan nan nan nan nan nan nan nan nan nan nan nan nan nan nan nan nan nan nan nan
17 16 14 14 16 16 17 16 16 15 10 7 7 9 11 12 nan nan nan nan nan nan nan nan nan nan nan nan nan nan nan nan nan 17 16 14 10 15 14 nan nan nan nan nan nan nan nan nan nan nan nan nan nan nan nan nan nan nan nan nan nan nan nan nan nan nan nan nan nan nan nan nan nan nan nan nan nan nan nan nan nan nan nan nan nan
20 17 14 14 16 17 17 18 18 18 14 10 10 10 9 10 14 15 14 16 nan nan nan nan nan nan nan nan nan nan nan nan nan nan 14 13 12 14 16 nan nan nan nan nan nan nan nan nan nan nan nan nan nan nan nan nan nan nan nan nan nan nan nan nan nan nan nan nan nan nan nan nan nan nan nan nan nan nan nan nan nan nan nan nan nan
24 20 15 15 15 17 17 20 22 21 17 14 11 10 10 10 11 15 17 18 16 16 15 16 nan nan nan nan nan nan nan nan nan nan nan 14 13 11 nan nan nan nan nan nan nan nan nan nan nan nan nan nan nan nan nan nan nan nan nan nan nan nan nan nan nan nan nan nan nan nan nan nan nan nan nan nan nan nan nan nan nan nan nan nan nan
25 21 17 16 16 16 17 21 24 24 20 18 15 12 12 12 12 13 15 16 17 18 18 19 19 17 18 nan 18 nan 18 nan nan nan 17 14 15 12 14 nan nan nan nan nan nan nan nan nan nan nan nan nan nan nan nan nan nan nan nan nan nan nan nan nan nan nan nan nan nan nan nan nan nan nan nan nan nan nan nan nan nan nan nan nan nan
23 20 18 19 18 18 17 20 25 27 26 22 18 16 14 13 13 14 16 18 18 19 19 20 21 20 19 18 nan 19 17 17 18 17 16 17 15 14 13 nan nan nan nan nan nan nan nan nan nan nan nan nan nan nan nan nan nan nan nan nan nan nan nan nan nan nan nan nan nan nan nan nan nan nan nan nan nan nan nan nan nan nan nan nan nan
23 20 22 22 20 19 20 22 27 30 28 25 22 18 16 15 15 16 17 nan 19 21 20 21 21 21 20 21 20 19 18 19 18 nan 18 19 16 15 16 14 nan nan nan nan nan nan nan nan nan nan nan nan nan nan nan nan nan nan nan nan nan nan nan nan nan nan nan nan nan nan nan nan nan nan nan nan nan nan nan nan nan nan nan nan nan
26 26 27 23 22 23 23 26 29 32 30 28 24 20 17 17 18 18 17 nan nan nan 20 22 21 22 22 21 21 20 20 20 20 19 19 18 18 17 18 16 12 nan nan nan nan nan nan nan nan nan nan nan nan nan nan nan nan nan nan nan nan nan nan nan nan nan nan nan nan nan nan nan nan nan nan nan nan nan nan nan nan nan nan nan nan
34 32 26 25 24 24 25 28 30 33 32 29 24 20 19 20 20 21 20 nan nan 22 21 22 22 23 23 22 21 21 21 21 21 21 19 19 18 18 18 17 nan nan nan nan nan 11 nan nan nan nan nan nan nan nan nan nan nan nan nan nan nan nan nan nan nan nan nan nan nan nan nan nan nan nan nan nan nan nan nan nan nan nan nan nan nan
36 32 29 26 25 25 25 28 28 33 33 28 24 21 21 21 22 22 21 19 19 21 21 22 21 22 21 24 23 22 22 22 22 22 21 20 19 19 19 19 nan nan 14 nan nan nan 12 17 nan nan nan nan nan nan nan nan nan nan nan nan nan nan nan nan nan nan nan nan nan nan nan nan nan nan nan nan nan nan nan nan nan nan nan nan nan
37 33 31 28 27 25 25 25 25 30 31 27 23 22 21 21 22 21 21 21 19 19 20 22 22 21 22 22 21 21 22 22 22 23 22 22 22 21 20 20 nan nan nan 15 12 nan 14 13 13 nan nan nan nan nan nan nan nan nan nan nan nan nan nan nan nan nan nan nan nan nan nan nan nan nan nan nan nan nan nan nan nan nan nan nan nan
39 35 32 31 30 27 25 24 22 27 31 27 24 23 22 22 22 22 22 20 19 19 19 21 21 22 22 22 21 20 22 22 22 22 22 22 21 21 21 21 21 nan nan nan 13 13 nan 16 13 nan nan nan nan nan nan nan nan nan nan nan nan nan nan nan nan nan nan nan nan nan nan nan nan nan nan nan nan nan nan nan nan nan nan nan nan
39 37 36 34 32 29 26 24 21 24 28 28 25 24 22 21 22 22 21 20 18 18 19 19 21 22 23 22 22 21 21 21 21 21 21 21 21 21 22 22 22 21 22 21 18 14 17 16 14 12 14 16 nan nan nan nan nan nan nan nan nan nan nan nan nan nan nan nan nan nan nan nan nan nan nan nan nan nan nan nan nan nan nan nan nan
40 40 39 38 35 32 30 26 22 22 24 26 26 25 23 21 20 21 21 20 19 17 19 19 20 22 22 22 22 22 22 22 20 20 20 21 21 20 22 23 23 23 23 21 19 15 15 15 14 12 14 18 16 18 19 nan nan nan nan nan nan nan nan nan nan nan nan nan nan nan nan nan nan nan nan nan nan nan nan nan nan nan nan nan nan
42 43 42 42 38 34 31 28 25 23 23 23 24 24 23 21 20 20 20 20 19 18 19 18 19 20 21 22 22 23 22 22 21 20 20 20 21 21 21 22 23 25 23 22 19 18 15 17 15 14 15 15 16 18 20 21 nan nan nan nan nan nan nan nan nan nan nan nan nan nan nan nan nan nan nan nan nan nan nan nan nan nan nan nan nan
44 45 44 43 40 35 33 31 28 25 24 23 23 23 22 21 20 19 20 20 19 20 19 18 19 20 20 21 22 23 22 21 21 20 20 20 20 21 21 22 22 24 25 22 22 20 18 16 17 16 15 15 15 17 18 nan nan nan nan nan nan nan nan nan nan nan nan nan nan nan nan nan nan nan nan nan nan nan nan nan nan nan nan nan nan
43 46 45 43 41 36 33 32 29 28 26 24 23 22 22 22 21 20 20 19 19 19 20 20 20 21 20 20 21 23 23 22 21 21 20 19 20 20 20 20 21 24 25 23 22 21 21 20 17 17 15 17 15 16 18 nan nan nan nan nan nan nan nan nan nan nan nan nan nan nan nan nan nan nan nan nan nan nan nan nan nan nan nan nan nan
42 45 45 44 41 37 34 32 30 29 27 26 25 23 23 23 23 23 22 20 19 19 20 21 22 21 20 20 21 22 23 22 21 21 20 21 19 19 19 19 20 22 23 24 22 22 22 22 19 16 16 15 15 16 19 nan nan nan nan nan nan nan nan nan nan nan nan nan nan nan nan nan nan nan nan nan nan nan nan nan nan nan nan nan nan
42 45 44 44 42 37 34 34 32 30 30 29 26 25 25 27 27 27 25 22 21 20 21 22 23 22 21 21 22 22 22 22 21 21 21 20 19 19 19 19 19 21 23 24 23 23 22 21 20 18 16 17 16 15 16 nan nan nan nan nan nan nan nan nan nan nan nan nan nan nan nan nan nan nan nan nan nan nan nan nan nan nan nan nan nan
43 47 45 44 44 40 36 36 34 33 32 31 29 28 29 31 31 30 28 25 23 22 22 23 23 23 22 22 23 22 22 21 21 21 21 20 19 19 19 19 20 21 23 23 23 23 23 22 19 17 17 15 16 17 16 nan nan nan nan nan nan nan nan nan nan nan nan nan nan nan nan nan nan nan nan nan nan nan nan nan nan nan nan nan nan
43 48 49 47 46 44 40 38 37 37 36 34 32 30 32 34 33 32 31 28 25 24 24 24 24 23 24 24 24 23 22 21 21 20 22 21 20 18 18 18 19 21 22 23 24 23 23 21 20 19 18 18 18 17 17 nan nan nan nan nan nan nan nan nan nan nan nan nan nan nan nan nan nan nan nan nan nan nan nan nan nan nan nan nan nan
42 46 50 50 48 46 43 42 42 42 39 37 35 33 35 36 35 35 34 30 27 26 27 26 25 24 25 25 25 24 22 22 22 22 23 23 22 20 18 19 20 21 22 23 24 24 22 22 21 19 20 19 19 21 20 nan nan nan nan nan nan nan nan nan nan nan nan nan nan nan nan nan nan nan nan nan nan nan nan nan nan nan nan nan nan
52 53 56 55 51 49 47 46 46 45 42 42 37 31 35 39 38 38 37 33 30 29 29 28 26 25 25 26 26 26 25 24 24 23 24 25 24 22 21 21 21 21 23 25 25 25 24 23 22 23 21 19 21 20 20 17 nan nan nan nan nan nan nan nan nan nan nan nan nan nan nan nan nan nan nan nan nan nan nan nan nan nan nan nan nan
44 44 51 55 57 57 54 53 51 48 45 44 38 35 35 38 41 39 38 36 34 32 31 30 27 26 26 26 26 25 25 24 24 24 25 26 25 23 23 24 23 24 25 26 25 27 27 24 24 23 21 20 20 20 18 nan nan nan nan nan nan nan nan nan nan nan nan nan nan nan nan nan nan nan nan nan nan nan nan nan nan nan nan nan nan
52 56 54 51 51 54 54 50 51 50 48 45 41 37 37 39 41 41 41 40 38 34 33 31 29 28 27 27 26 25 24 24 24 24 24 25 26 24 23 24 24 24 27 28 nan 27 nan nan nan nan nan nan 22 nan nan nan nan nan nan nan nan nan nan nan nan nan nan nan nan nan nan nan nan nan nan nan nan nan nan nan nan nan nan nan nan
54 54 54 54 53 55 55 51 48 44 45 48 45 39 38 40 41 43 44 42 41 37 35 34 31 29 29 28 26 24 22 24 25 24 25 25 25 24 22 22 22 24 23 25 30 nan nan nan nan nan nan nan nan nan nan nan nan nan nan nan nan nan nan nan nan nan nan nan nan nan nan nan nan nan nan nan nan nan nan nan nan nan nan nan nan
56 55 55 52 52 52 51 53 51 44 42 49 46 41 40 41 43 44 45 44 42 39 37 36 34 31 29 28 27 24 23 24 25 25 26 27 31 28 24 23 22 19 19 21 24 nan nan nan nan nan nan nan nan nan nan nan nan nan nan nan nan nan nan nan nan nan nan nan nan nan nan nan nan nan nan nan nan nan nan nan nan nan nan nan nan
57 56 55 53 50 49 49 52 54 47 43 46 47 44 42 42 42 45 46 46 44 41 39 36 34 32 31 29 28 25 24 24 25 27 28 28 31 29 27 25 23 22 23 22 23 25 nan nan nan nan nan nan nan nan nan nan nan nan nan nan nan nan nan nan nan nan nan nan nan nan nan nan nan nan nan nan nan nan nan nan nan nan nan nan nan
61 61 61 58 54 51 49 48 49 48 46 43 47 45 40 41 41 47 46 46 45 42 40 37 35 35 33 31 30 27 25 24 24 29 30 31 32 31 28 26 24 22 20 21 23 nan nan nan nan nan nan nan nan nan nan nan nan nan nan nan nan nan nan nan nan nan nan nan nan nan nan nan nan nan nan nan nan nan nan nan nan nan nan nan nan
60 60 58 55 51 48 47 47 47 47 47 45 42 40 36 36 45 52 47 46 45 43 41 41 39 37 35 33 32 30 27 24 25 29 31 34 31 30 29 29 27 25 21 24 24 nan nan nan nan nan nan nan nan nan nan nan nan nan nan nan nan nan nan nan nan nan nan nan nan nan nan nan nan nan nan nan nan nan nan nan nan nan nan nan nan
58 57 57 55 53 51 50 49 48 47 43 43 39 38 37 41 49 49 46 45 45 44 44 43 42 40 36 31 32 32 29 26 28 29 31 34 31 30 30 29 29 25 23 28 28 nan nan nan nan nan nan nan nan nan nan nan nan nan nan nan nan nan nan nan nan nan nan nan nan nan nan nan nan nan nan nan nan nan nan nan nan nan nan nan nan
56 58 59 57 54 53 51 49 48 44 41 40 38 37 42 48 51 51 49 47 45 44 43 42 42 42 40 35 31 32 30 29 33 31 33 33 31 31 31 30 27 26 27 34 31 nan nan nan nan nan nan nan nan nan nan nan nan nan nan nan nan nan nan nan nan nan nan nan nan nan nan nan nan nan nan nan nan nan nan nan nan nan nan nan nan
Wind_Direction
327 325 320 336 341 345 353 8 20 38 19 nan nan nan nan nan 335 330 321 321 324 327 329 328 328 nan nan nan nan nan nan nan nan nan nan nan nan nan nan nan nan nan nan nan nan nan nan nan nan nan nan nan nan nan nan nan nan nan nan nan nan nan nan nan nan nan nan nan nan nan nan nan nan nan nan nan nan nan nan nan nan nan nan nan nan
312 320 320 338 340 339 351 2 nan 26 22 nan nan nan nan nan nan 330 323 323 324 328 329 328 328 331 nan nan nan nan nan nan nan nan nan nan nan nan nan nan nan nan nan nan nan nan nan nan nan nan nan nan nan nan nan nan nan nan nan nan nan nan nan nan nan nan nan nan nan nan nan nan nan nan nan nan nan nan nan nan nan nan nan nan nan
297 309 327 339 340 341 353 351 nan nan 23 nan nan nan nan nan nan nan nan 324 324 326 327 327 327 331 333 nan nan nan nan nan nan nan nan nan nan nan nan nan nan nan nan nan nan nan nan nan nan nan nan nan nan nan nan nan nan nan nan nan nan nan nan nan nan nan nan nan nan nan nan nan nan nan nan nan nan nan nan nan nan nan nan nan nan
293 291 310 335 346 346 347 nan nan nan nan nan nan nan nan nan nan nan nan nan 323 325 326 324 326 331 331 nan nan nan nan nan nan nan nan nan nan nan nan nan nan nan nan nan nan nan nan nan nan nan nan nan nan nan nan nan nan nan nan nan nan nan nan nan nan nan nan nan nan nan nan nan nan nan nan nan nan nan nan nan nan nan nan nan nan
290 286 293 308 337 352 346 nan nan nan nan nan nan nan nan nan nan nan nan nan 326 327 326 322 323 329 332 nan nan nan nan nan nan nan nan nan nan nan nan nan nan nan nan nan nan nan nan nan nan nan nan nan nan nan nan nan nan nan nan nan nan nan nan nan nan nan nan nan nan nan nan nan nan nan nan nan nan nan nan nan nan nan nan nan nan
290 286 279 286 319 347 352 350 nan nan nan nan nan nan nan nan nan nan nan nan nan 331 328 324 nan 326 332 nan nan nan nan nan nan nan nan nan nan nan nan nan nan nan nan nan nan nan nan nan nan nan nan nan nan nan nan nan nan nan nan nan nan nan nan nan nan nan nan nan nan nan nan nan nan nan nan nan nan nan nan nan nan nan nan nan nan
288 288 280 282 318 338 346 354 nan nan nan nan nan nan nan nan nan nan nan nan nan nan 327 324 nan 328 330 nan nan nan nan nan nan nan nan nan nan nan nan nan nan nan nan nan nan nan nan nan nan nan nan nan nan nan nan nan nan nan nan nan nan nan nan nan nan nan nan nan nan nan nan nan nan nan nan nan nan nan nan nan nan nan nan nan nan
282 288 292 294 305 323 337 338 340 335 343 nan nan nan nan nan nan nan nan nan nan nan 324 nan nan nan 324 326 nan nan nan nan nan nan nan nan nan nan nan nan nan nan nan nan nan nan nan nan nan nan nan nan nan nan nan nan nan nan nan nan nan nan nan nan nan nan nan nan nan nan nan nan nan nan nan nan nan nan nan nan nan nan nan nan nan
279 284 289 292 290 299 306 324 328 334 332 337 nan nan nan nan nan nan nan nan nan nan nan nan nan nan 318 320 nan nan nan nan nan nan nan nan nan nan nan nan nan nan nan nan nan nan nan nan nan nan nan nan nan nan nan nan nan nan nan nan nan nan nan nan nan nan nan nan nan nan nan nan nan nan nan nan nan nan nan nan nan nan nan nan nan
275 277 276 284 289 294 288 301 319 327 327 336 nan nan nan nan nan nan nan nan nan nan nan nan nan nan nan 316 309 nan nan nan nan nan nan nan nan nan nan nan nan nan nan nan nan nan nan nan nan nan nan nan nan nan nan nan nan nan nan nan nan nan nan nan nan nan nan nan nan nan nan nan nan nan nan nan nan nan nan nan nan nan nan nan nan
269 272 271 272 278 283 282 294 310 324 325 336 335 nan nan nan nan nan nan nan nan nan nan nan nan nan nan 306 nan nan nan nan nan nan nan nan nan nan nan nan nan nan nan nan nan nan nan nan nan nan nan nan nan nan nan nan nan nan nan nan nan nan nan nan nan nan nan nan nan nan nan nan nan nan nan nan nan nan nan nan nan nan nan nan nan
264 265 263 263 266 272 281 283 301 316 330 339 333 nan nan nan nan nan nan nan nan nan nan nan nan nan nan nan nan nan nan nan nan nan nan nan nan nan nan nan nan nan nan nan nan nan nan nan nan nan nan nan nan nan nan nan nan nan nan nan nan nan nan nan nan nan nan nan nan nan nan nan nan nan nan nan nan nan nan nan nan nan nan nan nan
261 260 257 256 257 261 272 279 293 314 333 348 328 nan nan nan nan nan nan nan nan nan nan nan nan nan nan nan nan nan nan nan nan nan nan nan nan nan nan nan nan nan nan nan nan nan nan nan nan nan nan nan nan nan nan nan nan nan nan nan nan nan nan nan nan nan nan nan nan nan nan nan nan nan nan nan nan nan nan nan nan nan nan nan nan
258 259 254 254 252 252 261 274 284 306 337 337 319 nan nan nan nan nan nan nan nan nan nan nan nan nan nan nan nan 286 nan 305 nan nan nan nan nan nan nan nan nan nan nan nan nan nan nan nan nan nan nan nan nan nan nan nan nan nan nan nan nan nan nan nan nan nan nan nan nan nan nan nan nan nan nan nan nan nan nan nan nan nan nan nan nan
257 261 257 252 250 249 250 256 272 286 312 nan nan nan nan nan nan nan nan nan nan nan nan nan nan nan nan nan nan 289 nan nan nan nan nan nan nan nan nan nan nan nan nan nan nan nan nan nan nan nan nan nan nan nan nan nan nan nan nan nan nan nan nan nan nan nan nan nan nan nan nan nan nan nan nan nan nan nan nan nan nan nan nan nan nan
256 264 261 255 250 246 246 252 264 275 295 312 306 nan nan nan nan nan nan nan nan nan nan nan nan nan nan nan nan nan nan nan nan nan nan nan nan nan nan nan nan nan nan nan nan nan nan nan nan nan nan nan nan nan nan nan nan nan nan nan nan nan nan nan nan nan nan nan nan nan nan nan nan nan nan nan nan nan nan nan nan nan nan nan nan
255 265 267 262 252 245 245 252 258 261 267 292 304 307 nan nan nan nan nan nan nan nan nan nan nan nan nan nan nan nan nan nan nan nan nan nan nan nan nan nan nan nan nan nan nan nan nan nan nan nan nan nan nan nan nan nan nan nan nan nan nan nan nan nan nan nan nan nan nan nan nan nan nan nan nan nan nan nan nan nan nan nan nan nan nan
253 261 266 264 258 248 243 252 255 251 255 276 293 295 309 nan nan nan nan nan nan nan nan nan nan nan nan nan nan nan nan nan nan nan nan nan nan nan nan nan nan nan nan nan nan nan nan nan nan nan nan nan nan nan nan nan nan nan nan nan nan nan nan nan nan nan nan nan nan nan nan nan nan nan nan nan nan nan nan nan nan nan nan nan nan
251 257 263 267 263 250 240 247 251 245 246 268 293 306 313 322 nan nan nan nan nan nan nan nan nan nan nan nan nan nan nan nan nan nan nan nan nan nan nan nan nan nan nan nan nan nan nan nan nan nan nan nan nan nan nan nan nan nan nan nan nan nan nan nan nan nan nan nan nan nan nan nan nan nan nan nan nan nan nan nan nan nan nan nan nan
249 253 261 269 269 253 237 241 249 244 247 274 299 300 307 nan nan nan nan nan nan nan nan nan nan nan nan nan nan nan nan nan nan nan nan 299 305 300 312 nan nan nan nan nan nan nan nan nan nan nan nan nan nan nan nan nan nan nan nan nan nan nan nan nan nan nan nan nan nan nan nan nan nan nan nan nan nan nan nan nan nan nan nan nan nan
252 258 261 269 274 260 239 238 245 244 245 262 282 299 317 323 nan nan nan nan nan nan nan nan nan nan nan nan nan nan nan nan nan 283 293 298 305 318 326 nan nan nan nan nan nan nan nan nan nan nan nan nan nan nan nan nan nan nan nan nan nan nan nan nan nan nan nan nan nan nan nan nan nan nan nan nan nan nan nan nan nan nan nan nan nan
249 256 263 271 275 267 246 240 242 243 245 259 272 293 305 323 336 336 332 330 nan nan nan nan nan nan nan nan nan nan nan nan nan nan 280 292 315 321 329 nan nan nan nan nan nan nan nan nan nan nan nan nan nan nan nan nan nan nan nan nan nan nan nan nan nan nan nan nan nan nan nan nan nan nan nan nan nan nan nan nan nan nan nan nan nan
247 251 262 269 272 273 256 240 238 241 249 257 263 282 296 309 323 329 333 335 333 326 323 324 nan nan nan nan nan nan nan nan nan nan nan 301 301 325 nan nan nan nan nan nan nan nan nan nan nan nan nan nan nan nan nan nan nan nan nan nan nan nan nan nan nan nan nan nan nan nan nan nan nan nan nan nan nan nan nan nan nan nan nan nan nan
243 249 262 272 270 273 266 247 239 241 249 253 257 269 283 291 305 321 328 332 331 330 328 326 325 320 323 nan 321 nan 315 nan nan nan 313 316 319 327 322 nan nan nan nan nan nan nan nan nan nan nan nan nan nan nan nan nan nan nan nan nan nan nan nan nan nan nan nan nan nan nan nan nan nan nan nan nan nan nan nan nan nan nan nan nan nan
241 250 262 275 269 273 272 253 238 238 247 252 254 266 276 287 300 313 320 327 331 331 331 333 330 329 331 326 nan 319 323 310 305 310 306 302 314 321 319 nan nan nan nan nan nan nan nan nan nan nan nan nan nan nan nan nan nan nan nan nan nan nan nan nan nan nan nan nan nan nan nan nan nan nan nan nan nan nan nan nan nan nan nan nan nan
243 248 254 263 265 268 271 261 242 238 245 253 256 262 273 284 296 306 318 nan 322 332 334 333 333 337 327 325 327 325 322 313 310 nan 311 307 314 329 321 316 nan nan nan nan nan nan nan nan nan nan nan nan nan nan nan nan nan nan nan nan nan nan nan nan nan nan nan nan nan nan nan nan nan nan nan nan nan nan nan nan nan nan nan nan nan
238 239 247 258 265 266 274 272 251 236 240 248 250 258 269 279 289 298 303 nan nan nan 330 331 333 335 333 332 331 326 324 318 314 320 315 322 323 323 323 328 328 nan nan nan nan nan nan nan nan nan nan nan nan nan nan nan nan nan nan nan nan nan nan nan nan nan nan nan nan nan nan nan nan nan nan nan nan nan nan nan nan nan nan nan nan
232 237 243 252 262 268 275 279 258 234 234 245 251 258 270 278 283 288 297 nan nan 325 328 330 335 338 338 333 328 334 326 321 322 321 322 322 322 319 325 329 nan nan nan nan nan 333 nan nan nan nan nan nan nan nan nan nan nan nan nan nan nan nan nan nan nan nan nan nan nan nan nan nan nan nan nan nan nan nan nan nan nan nan nan nan nan
230 234 241 246 255 264 274 281 261 233 232 243 253 263 273 277 284 288 291 296 307 321 322 328 332 333 335 337 338 334 330 322 319 319 321 319 321 321 324 328 nan nan 326 nan nan nan 315 324 nan nan nan nan nan nan nan nan nan nan nan nan nan nan nan nan nan nan nan nan nan nan nan nan nan nan nan nan nan nan nan nan nan nan nan nan nan
229 232 240 246 250 257 266 276 260 235 235 245 253 263 272 273 282 286 287 291 303 309 319 325 328 329 335 336 335 334 326 323 323 326 324 324 321 321 321 318 nan nan nan 330 331 nan 318 310 323 nan nan nan nan nan nan nan nan nan nan nan nan nan nan nan nan nan nan nan nan nan nan nan nan nan nan nan nan nan nan nan nan nan nan nan nan
230 235 240 243 246 249 256 267 256 236 236 246 254 260 269 270 275 278 281 287 296 309 313 319 323 326 332 337 334 333 325 326 324 326 327 321 322 319 316 314 319 nan nan nan 326 319 nan 318 324 nan nan nan nan nan nan nan nan nan nan nan nan nan nan nan nan nan nan nan nan nan nan nan nan nan nan nan nan nan nan nan nan nan nan nan nan
228 235 237 240 243 245 247 256 257 245 242 245 253 259 262 266 271 273 279 286 293 304 307 310 314 323 329 333 332 331 326 324 326 327 328 328 324 319 317 318 318 319 322 323 333 339 320 317 310 313 314 310 nan nan nan nan nan nan nan nan nan nan nan nan nan nan nan nan nan nan nan nan nan nan nan nan nan nan nan nan nan nan nan nan nan
228 233 235 237 238 239 242 246 253 254 251 247 248 253 258 263 266 273 278 285 290 292 298 306 312 318 325 329 330 331 326 329 327 327 327 324 324 324 319 317 317 316 320 323 333 340 315 306 311 310 306 309 315 321 320 nan nan nan nan nan nan nan nan nan nan nan nan nan nan nan nan nan nan nan nan nan nan nan nan nan nan nan nan nan nan
225 229 232 233 234 236 240 242 246 252 253 252 250 253 259 263 266 265 273 281 284 288 292 300 307 311 319 324 325 326 327 335 329 328 326 324 324 323 321 319 319 319 323 326 329 329 335 306 313 303 307 313 315 319 325 322 nan nan nan nan nan nan nan nan nan nan nan nan nan nan nan nan nan nan nan nan nan nan nan nan nan nan nan nan nan
221 225 228 231 233 233 236 240 245 249 252 250 249 255 261 265 267 266 268 275 281 284 291 297 301 304 311 319 322 320 320 328 331 332 325 325 324 328 324 320 319 314 322 333 325 332 336 325 311 311 313 310 318 311 318 nan nan nan nan nan nan nan nan nan nan nan nan nan nan nan nan nan nan nan nan nan nan nan nan nan nan nan nan nan nan
220 222 225 229 232 232 234 239 244 248 250 248 248 252 260 262 263 265 266 270 274 281 288 291 294 299 309 312 316 317 319 325 327 327 330 324 327 328 325 323 321 317 322 326 328 329 321 320 314 319 307 309 308 303 309 nan nan nan nan nan nan nan nan nan nan nan nan nan nan nan nan nan nan nan nan nan nan nan nan nan nan nan nan nan nan
219 222 223 228 232 233 234 238 242 245 248 247 246 249 252 254 257 260 263 266 270 276 281 284 288 297 304 312 314 314 316 322 322 326 324 330 327 326 327 324 322 319 316 320 321 321 318 320 314 305 300 299 297 300 311 nan nan nan nan nan nan nan nan nan nan nan nan nan nan nan nan nan nan nan nan nan nan nan nan nan nan nan nan nan nan
220 223 225 228 232 234 233 236 239 241 245 245 244 245 250 251 252 255 259 264 267 271 275 279 285 290 298 305 306 311 313 318 320 322 323 329 325 328 330 326 323 319 318 319 315 317 319 319 315 307 304 306 297 297 310 nan nan nan nan nan nan nan nan nan nan nan nan nan nan nan nan nan nan nan nan nan nan nan nan nan nan nan nan nan nan
221 223 225 228 229 232 233 235 237 239 241 243 241 240 245 250 254 258 260 261 262 265 270 276 281 287 293 298 302 307 312 314 314 317 321 322 322 330 329 333 327 321 320 316 314 317 316 314 310 309 305 296 298 299 301 nan nan nan nan nan nan nan nan nan nan nan nan nan nan nan nan nan nan nan nan nan nan nan nan nan nan nan nan nan nan
218 221 224 225 226 228 230 233 235 235 237 240 239 238 243 250 253 256 259 260 261 262 266 270 275 282 289 294 299 304 309 309 309 309 312 318 317 325 326 324 325 324 322 314 311 309 309 311 313 309 303 298 288 283 290 nan nan nan nan nan nan nan nan nan nan nan nan nan nan nan nan nan nan nan nan nan nan nan nan nan nan nan nan nan nan
219 218 220 222 224 226 227 229 232 233 234 237 237 237 242 249 252 255 258 260 259 260 263 266 270 276 282 287 293 299 306 311 316 309 310 312 314 320 321 323 325 326 322 316 306 304 305 306 307 298 299 298 298 297 299 nan nan nan nan nan nan nan nan nan nan nan nan nan nan nan nan nan nan nan nan nan nan nan nan nan nan nan nan nan nan
221 214 213 216 220 223 224 225 228 230 230 232 234 237 242 248 252 251 253 255 256 257 260 262 266 271 277 281 287 304 311 315 314 314 313 316 320 319 317 322 325 326 324 318 310 306 303 306 311 308 306 308 304 312 312 316 nan nan nan nan nan nan nan nan nan nan nan nan nan nan nan nan nan nan nan nan nan nan nan nan nan nan nan nan nan
226 232 229 221 218 218 217 217 220 223 225 228 233 233 238 250 252 251 253 252 253 255 257 261 263 266 268 275 279 292 303 308 309 315 312 314 317 323 322 326 323 322 318 316 315 309 306 307 304 308 312 310 311 307 312 nan nan nan nan nan nan nan nan nan nan nan nan nan nan nan nan nan nan nan nan nan nan nan nan nan nan nan nan nan nan
217 219 223 227 229 230 228 222 218 216 216 222 231 230 234 245 251 249 248 249 250 251 254 257 258 261 265 269 273 279 290 301 302 305 309 309 312 319 324 326 329 331 325 320 nan 308 nan nan nan nan nan nan 307 nan nan nan nan nan nan nan nan nan nan nan nan nan nan nan nan nan nan nan nan nan nan nan nan nan nan nan nan nan nan nan nan
223 224 223 224 225 227 228 228 226 223 217 217 222 224 230 240 248 248 244 246 247 248 251 253 256 258 261 265 269 273 283 302 299 297 299 300 301 313 318 321 325 329 330 331 321 nan nan nan nan nan nan nan nan nan nan nan nan nan nan nan nan nan nan nan nan nan nan nan nan nan nan nan nan nan nan nan nan nan nan nan nan nan nan nan nan
225 225 227 227 225 225 226 230 231 226 223 224 221 219 227 236 243 245 242 245 245 246 249 252 253 257 261 264 268 273 278 286 291 295 295 295 291 292 296 300 305 316 324 328 324 nan nan nan nan nan nan nan nan nan nan nan nan nan nan nan nan nan nan nan nan nan nan nan nan nan nan nan nan nan nan nan nan nan nan nan nan nan nan nan nan
227 228 230 229 226 226 226 227 230 229 227 236 230 222 220 229 238 243 241 242 242 242 244 248 252 255 257 261 267 273 279 284 287 295 294 294 292 292 295 298 304 309 312 312 311 309 nan nan nan nan nan nan nan nan nan nan nan nan nan nan nan nan nan nan nan nan nan nan nan nan nan nan nan nan nan nan nan nan nan nan nan nan nan nan nan
226 226 228 229 227 227 227 227 228 228 229 238 239 235 233 233 239 239 239 239 239 240 242 246 248 251 254 259 263 268 274 281 290 301 298 289 290 293 295 295 297 302 307 310 313 nan nan nan nan nan nan nan nan nan nan nan nan nan nan nan nan nan nan nan nan nan nan nan nan nan nan nan nan nan nan nan nan nan nan nan nan nan nan nan nan
230 230 231 233 232 232 232 231 231 229 229 241 247 248 249 249 243 239 240 239 238 239 242 243 245 248 252 258 263 265 270 275 285 296 298 292 287 292 293 293 294 298 306 294 296 nan nan nan nan nan nan nan nan nan nan nan nan nan nan nan nan nan nan nan nan nan nan nan nan nan nan nan nan nan nan nan nan nan nan nan nan nan nan nan nan
234 232 232 231 231 231 233 233 233 231 229 237 245 244 248 251 249 245 244 244 241 241 243 246 247 249 251 259 263 266 269 272 283 291 294 291 287 289 290 289 291 297 299 290 285 nan nan nan nan nan nan nan nan nan nan nan nan nan nan nan nan nan nan nan nan nan nan nan nan nan nan nan nan nan nan nan nan nan nan nan nan nan nan nan nan
235 234 233 232 231 232 235 238 242 239 232 234 244 243 246 250 250 244 243 240 242 243 245 247 249 250 251 253 263 265 265 271 284 288 290 289 285 286 288 289 295 298 298 297 299 nan nan nan nan nan nan nan nan nan nan nan nan nan nan nan nan nan nan nan nan nan nan nan nan nan nan nan nan nan nan nan nan nan nan nan nan nan nan nan nan